Torna al catalogo

SDA_1683

AttivoMilitarePO
NORAD 65993·PAYLOAD·🇺🇸 United States

Lanciato Oct 15, 2025 da Vandenberg Space Force Base

Loading…

Prossimi Passaggi (prossime 24 ore)

TLE

AggiornatoSource: Space-Track

Epoca: Sep 14, 2026, 08:42 UTC

1 65993U 25230V   26257.36276645  .00000081  00000-0  69014-4 0  9998
2 65993  81.3009 130.6277 0001275  58.4379 301.6899 13.78094818 46052

Traccia SDA_1683 in tempo reale con AllMySat

Download on the App Store